Hourly Data Report for October 05, 2017

All times are specified in Local Standard Time (LST). Add 1 hour to adjust for Daylight Saving Time where and when it is observed.

BERENS RIVER CS
MANITOBA

52°21'35.052" N
97°01'19.032" W
221.90 m
5030203
71158
WCF

Download Data

Hourly Data (October 2017)
Hourly Data Report for October 5, 2017
Temp Definition
°C
Dew Point Temp Definition
°C
Rel Hum Definition
%
Wind Dir Definition
10's deg

Wind Spd Definition
km/h
Visibility Definition
km
Stn Press Definition
kPa
Hmdx Definition


Wind Chill Definition


Weather Definition


TIME
00:00 5.1 2.8 85 36 3   99.10     LegendNANA
01:00 4.4 2.9 90 33 4   99.13     LegendNANA
02:00 3.9 2.4 90 32 5   99.14     LegendNANA
03:00 2.6 1.4 92 32 3   99.13     LegendNANA
04:00 3.3 0.8 84 35 5   99.15     LegendNANA
05:00 3.3 1.9 91 11 2   99.17     LegendNANA
06:00 2.0 0.9 93 2 6   99.20     LegendNANA
07:00 -0.1 -1.4 92 5 4   99.22   -1 LegendNANA
08:00 2.1 0.1 86 12 3   99.23     LegendNANA
09:00 5.1 -1.2 63 11 3   99.26     LegendNANA
10:00 6.6 -1.5 56 17 2   99.25     LegendNANA
11:00 7.3 -1.3 54 26 7   99.23     LegendNANA
12:00 9.1 -0.1 53 30 16   99.19     LegendNANA
13:00 9.1 -0.5 51 27 22   99.15     LegendNANA
14:00 9.5 1.2 56 28 22   99.13     LegendNANA
15:00 10.3 2.3 57 27 18   99.05     LegendNANA
16:00 10.3 2.3 58 26 14   99.01     LegendNANA
17:00 9.5 2.8 63 24 11   98.95     LegendNANA
18:00 9.0 3.1 67 22 9   98.90     LegendNANA
19:00 10.0 4.1 67 24 10   98.86     LegendNANA
20:00 10.8 3.4 60 24 12   98.80     LegendNANA
21:00 10.1 5.3 72 20 8   98.74     LegendNANA
22:00 10.3 4.7 68 22 14   98.67     LegendNANA
23:00 10.8 4.1 63 22 13   98.63     LegendNANA

Notes on Data Quality.

Legend

  • E = Estimated
  • M = Missing
  • NA = Not Available
  • ‡ = Partner data that is not subject to review by the National Climate Archives
Date modified: